Location: Artiguedieu
(43.5000°N, 0.5454°E)
Time: 11:53:48
(UTC+00:00)

FENGYUN 3A - Pass Details

Date: 06 December 2020
Orbit: 823 x 837 km, 98.4° (Epoch: 27 January)

Event Time Altitude Azimuth Distance (km) Brightness Sun altitude
Rises 04:27:35 0° 14° (NNE) 3,385 7.0 -29.8°
Reaches altitude 10° 04:29:58 10° 15° (NNE) 2,445 6.2 -29.4°
Maximum altitude 04:35:23 81° 103° (ESE) 842 3.6 -28.4°
Enters shadow 04:36:30 58° 180° (S) 962 3.9 -28.2°
Exits shadow 04:40:06 14° 191° (S) 2,157 5.7 -27.5°
Drops below altitude 10° 04:40:46 10° 192° (SSW) 2,419 6.0 -27.4°
Sets 04:43:06 0° 193° (SSW) 3,346 6.8 -27.0°
